Powrót do katalogu

STARLINK-3526

AktywnyŁącznośćVLEO
NORAD 51720·PAYLOAD·🇺🇸 United States

Wystrzelony Feb 21, 2022 z Cape Canaveral Space Force Station

Loading…

Następne Przeloty (najbliższe 24 godziny)

TLE

ŚwieżeSource: CelesTrak SupGP

Epoka: Sep 15, 2026, 01:31 UTC

1 51720C 22016G   26258.06368056 -.00019805  00000+0 -63696-3 0  2588
2 51720  53.1589 185.2205 0001637  85.8436 339.5086 15.31706628    16

Śledź STARLINK-3526 w czasie rzeczywistym z AllMySat

Download on the App Store